TimeCST,TemperatureF,Dew PointF,Humidity,Sea Level PressureIn,VisibilityMPH,Wind Direction,Wind SpeedMPH,Gust SpeedMPH,PrecipitationIn,Events,Conditions,WindDirDegrees,DateUTC
12:53 AM,46.9,39.9,77,30.22,10.0,NE,3.5,-,0.00,Rain,Light Rain,50,2013-11-19 06:53:00
1:53 AM,46.0,37.9,73,30.21,10.0,ENE,4.6,-,0.00,,Clear,60,2013-11-19 07:53:00
2:53 AM,45.0,37.0,74,30.22,10.0,Calm,Calm,-,0.00,Rain,Light Rain,0,2013-11-19 08:53:00
3:53 AM,45.0,37.9,76,30.23,10.0,Calm,Calm,-,0.00,Rain,Light Rain,0,2013-11-19 09:53:00
4:53 AM,44.1,39.0,82,30.22,10.0,ENE,4.6,-,0.00,,Clear,60,2013-11-19 10:53:00
5:53 AM,46.0,35.1,66,30.24,10.0,NNE,3.5,-,0.00,Rain,Light Rain,30,2013-11-19 11:53:00
6:53 AM,45.0,35.1,68,30.27,10.0,Calm,Calm,-,0.00,,Clear,0,2013-11-19 12:53:00
7:53 AM,46.0,36.0,68,30.27,10.0,NE,8.1,-,N/A,,Clear,50,2013-11-19 13:53:00
8:53 AM,48.0,34.0,58,30.30,10.0,East,4.6,-,N/A,,Clear,80,2013-11-19 14:53:00
9:53 AM,50.0,34.0,54,30.30,10.0,East,5.8,-,N/A,,Clear,90,2013-11-19 15:53:00
10:53 AM,52.0,33.1,49,30.28,10.0,ENE,6.9,-,N/A,,Clear,60,2013-11-19 16:53:00
11:53 AM,55.0,30.9,40,30.26,10.0,NE,10.4,-,N/A,,Clear,50,2013-11-19 17:53:00
12:53 PM,57.9,28.0,32,30.22,10.0,East,9.2,17.3,N/A,,Clear,80,2013-11-19 18:53:00
1:53 PM,59.0,28.0,31,30.19,10.0,ENE,12.7,-,N/A,,Clear,70,2013-11-19 19:53:00
2:53 PM,59.0,28.9,32,30.17,10.0,ENE,13.8,19.6,N/A,,Clear,70,2013-11-19 20:53:00
3:53 PM,57.9,26.1,30,30.16,10.0,NE,11.5,16.1,N/A,,Clear,50,2013-11-19 21:53:00
4:53 PM,53.1,30.0,41,30.15,10.0,Calm,Calm,-,N/A,,Clear,0,2013-11-19 22:53:00
5:53 PM,48.9,34.0,56,30.16,10.0,Calm,Calm,-,N/A,,Clear,0,2013-11-19 23:53:00
6:53 PM,46.0,35.1,66,30.17,10.0,Calm,Calm,-,0.00,,Clear,0,2013-11-20 00:53:00
7:53 PM,44.1,36.0,73,30.16,10.0,Calm,Calm,-,N/A,,Clear,0,2013-11-20 01:53:00
8:53 PM,42.1,36.0,79,30.17,10.0,Calm,Calm,-,N/A,,Clear,0,2013-11-20 02:53:00
9:53 PM,41.0,35.1,79,30.16,10.0,Calm,Calm,-,N/A,,Clear,0,2013-11-20 03:53:00
10:53 PM,39.9,34.0,79,30.14,10.0,ENE,5.8,-,N/A,,Clear,70,2013-11-20 04:53:00
11:53 PM,39.9,34.0,79,30.15,10.0,Calm,Calm,-,N/A,,Clear,0,2013-11-20 05:53:00